Temperature
17 17 17 17 17 17 17 17 16 16 15 15 14 14 14 14 14 14 14 14 14 14 13 13 13 13 13 13 13 13 13 13 13 13 13 12 12 12
17 17 17 17 17 17 17 16 16 16 15 15 15 14 14 14 14 14 14 14 13 13 13 13 13 13 13 13 13 13 13 13 12 12 12 12 12 12
17 17 17 17 17 16 16 16 16 16 16 15 14 14 14 14 14 13 13 13 13 13 13 13 13 13 13 13 12 12 12 12 12 12 12 12 12 11
17 16 16 16 16 16 16 16 16 16 15 15 14 14 14 14 14 13 13 13 13 13 13 13 13 13 13 12 12 12 12 12 12 12 12 12 11 11
16 16 16 16 16 16 16 16 16 15 15 15 14 14 14 14 13 13 13 13 13 13 13 13 13 13 12 12 12 12 12 12 12 11 11 11 11 11
16 16 16 16 16 16 15 15 15 15 15 15 14 14 14 13 13 13 13 13 13 12 13 12 12 12 12 12 12 12 12 11 11 11 11 11 11 11
16 16 15 16 15 15 15 15 15 15 15 14 14 14 13 13 13 13 13 13 12 12 12 12 12 12 12 12 12 12 12 11 11 11 11 11 10 10
16 16 15 15 15 15 15 15 15 14 14 14 14 14 13 13 13 13 12 12 12 12 12 12 12 12 12 12 12 12 11 11 11 11 11 10 10 10
16 16 15 15 15 15 15 15 14 14 14 14 14 14 13 13 13 13 12 12 12 12 12 12 12 12 12 12 12 11 11 11 11 11 10 10 10 10
16 15 15 15 15 15 14 14 14 14 14 14 14 14 13 13 13 13 12 12 12 12 12 12 12 12 12 12 11 11 11 11 11 11 10 10 10 10
16 15 15 15 15 15 14 14 14 14 14 14 14 13 13 13 13 12 12 12 12 12 12 12 12 12 12 12 11 11 11 11 11 10 10 10 10 9
15 15 15 15 15 15 14 14 14 14 14 13 13 13 13 13 13 12 12 12 12 12 12 12 12 12 11 11 11 11 11 11 11 10 10 10 10 9
15 15 15 15 15 15 14 14 14 14 13 13 13 13 13 13 13 12 12 12 12 12 12 12 12 11 11 11 11 11 11 11 11 10 10 10 9 9
15 15 15 15 15 15 14 14 14 13 13 13 13 13 13 13 12 12 12 12 12 12 12 12 11 11 11 11 11 11 11 11 11 11 10 10 10 9
15 15 15 15 14 14 14 14 14 13 13 13 13 13 13 13 12 12 12 12 12 12 12 11 11 11 11 11 11 11 11 11 10 10 10 10 10 9
15 15 14 14 14 14 14 14 14 13 13 13 13 13 13 12 12 12 12 12 12 12 12 11 11 11 11 11 11 11 11 11 10 10 10 10 10 9
15 15 14 14 14 14 14 14 13 13 13 13 13 12 12 12 12 12 12 12 11 11 11 11 11 11 11 11 11 11 11 10 10 10 10 9 9 9
14 14 14 14 14 14 14 13 13 13 13 13 13 13 12 12 12 12 12 11 11 11 11 11 11 11 11 10 10 10 10 10 10 10 10 9 9 9
14 14 14 14 14 14 13 13 13 13 13 13 13 13 12 12 12 12 12 11 11 11 11 11 11 11 10 10 10 10 10 10 10 9 9 9 9 9
14 14 14 14 13 13 13 13 13 13 13 13 12 12 12 12 12 12 11 11 11 11 11 11 11 10 10 10 10 10 10 10 9 9 9 9 9 9
14 14 14 13 13 13 13 13 13 13 12 12 12 12 12 12 12 11 11 11 11 11 11 11 10 10 10 10 10 10 10 9 9 9 9 9 8 8
14 14 14 13 13 13 13 12 12 12 12 12 12 12 11 11 11 11 11 11 11 11 11 10 10 10 10 9 9 9 9 9 9 9 8 8 8 8
14 13 13 13 13 13 12 12 12 12 12 12 11 11 11 11 11 11 11 11 10 10 10 10 10 9 9 9 9 9 9 9 8 8 8 8 8 8
Wind_Speed
2 2 2 2 1 1 1 1 1 2 2 2 2 3 5 7 8 8 8 8 8 7 7 7 8 8 8 7 8 8 8 8 8 8 7 7 7 6
1 2 3 2 2 1 1 0 0 1 2 2 2 3 3 5 7 8 9 9 7 7 7 7 7 7 7 8 8 8 8 8 8 8 8 8 8 8
2 2 3 2 2 2 1 1 1 2 3 3 3 3 3 3 5 6 8 9 7 7 8 7 7 7 7 7 7 7 8 8 8 8 9 9 8 7
2 2 2 2 3 2 2 2 1 2 3 4 3 3 3 3 4 4 5 7 7 8 9 9 8 7 7 7 6 6 6 7 7 7 7 7 7 6
2 1 1 2 2 2 2 2 1 2 3 3 3 2 2 3 3 2 3 4 6 8 9 9 9 9 8 7 7 6 6 6 6 6 6 6 6 5
1 1 2 2 2 2 1 1 1 1 2 3 3 3 2 2 2 2 2 2 3 6 8 9 10 10 9 9 8 7 7 6 6 6 6 5 5 4
1 2 3 4 5 3 2 1 1 0 1 2 3 3 2 2 2 2 2 3 2 2 4 6 7 7 8 10 10 10 10 9 8 7 7 6 5 5
1 1 2 4 3 3 4 3 2 0 0 0 1 2 2 2 2 2 2 2 1 2 2 4 6 6 7 10 13 14 13 12 11 10 9 8 7 6
1 1 2 2 3 2 1 1 2 2 1 1 1 1 1 2 2 3 2 2 2 2 2 3 3 4 7 11 17 18 17 15 13 12 11 10 9 8
2 2 1 1 1 1 2 2 1 1 2 2 1 1 1 1 2 3 4 3 3 2 2 3 3 3 4 8 17 20 19 17 16 14 13 12 11 10
3 3 2 2 2 1 2 2 2 1 1 1 3 3 4 4 2 1 2 2 3 3 3 3 3 2 3 4 12 19 20 19 18 16 15 14 13 11
3 4 3 3 4 3 3 3 3 2 1 1 2 3 4 5 6 3 3 3 3 2 3 3 3 2 2 2 5 11 13 16 18 18 17 17 15 9
3 3 3 6 6 6 5 4 4 3 2 3 3 4 4 4 4 5 4 4 4 3 2 2 3 2 2 2 2 5 9 9 11 13 17 18 18 13
3 2 2 6 7 6 5 5 5 3 3 4 3 4 4 4 4 4 6 6 5 5 4 3 3 3 3 3 3 3 5 7 8 8 10 14 17 18
3 2 3 6 6 5 7 7 5 4 4 4 4 4 4 4 4 4 5 6 7 8 8 6 4 4 3 4 3 3 3 4 6 5 6 7 8 8
4 3 5 6 6 5 4 5 5 5 4 5 4 4 3 4 4 4 4 4 5 5 7 9 7 5 5 5 4 4 3 3 4 5 5 5 7 9
4 3 3 4 5 5 5 5 5 5 6 6 5 4 4 3 4 4 4 4 5 5 4 4 6 7 6 5 5 5 4 3 3 4 4 5 5 6
5 5 5 6 6 6 6 6 6 6 6 6 5 5 5 4 3 3 4 4 4 4 3 3 3 3 3 4 5 5 4 4 3 3 3 3 4 3
6 6 6 6 6 6 6 6 5 5 5 5 6 5 4 4 4 4 4 4 4 4 4 3 3 4 5 5 4 6 5 4 3 4 4 3 4 3
7 7 7 6 6 6 5 5 4 4 4 4 4 4 4 4 4 4 4 4 4 4 4 4 4 4 5 5 4 4 8 5 4 4 3 2 1 2
7 7 6 6 6 5 4 4 4 4 4 4 4 4 4 4 5 5 4 6 5 4 5 5 4 5 3 2 3 3 3 7 5 4 3 2 2 2
6 6 6 6 5 4 4 4 5 4 4 4 4 4 5 4 5 6 5 4 4 4 4 3 2 3 3 3 4 4 3 2 4 5 6 6 4 4
6 6 6 5 5 4 4 5 5 4 4 4 4 4 4 4 4 4 4 4 3 3 3 2 2 2 3 3 4 4 4 3 3 3 3 5 6 7
Wind_Direction
16 20 357 351 29 76 107 167 152 151 146 137 123 115 125 123 140 135 122 122 119 112 104 98 92 86 84 86 88 89 90 90 93 93 96 101 106 113
47 40 10 1 22 41 82 94 34 132 142 144 136 141 138 139 146 140 134 132 129 131 126 118 111 104 97 92 91 91 94 96 97 98 100 102 99 100
34 53 31 24 13 23 41 67 64 104 131 131 128 133 129 117 142 152 151 148 147 153 147 140 131 123 114 108 103 102 100 101 103 104 105 105 104 102
49 43 18 23 19 12 12 51 66 107 133 142 144 145 147 143 161 189 167 160 155 166 163 158 152 147 139 131 125 119 115 115 112 112 112 111 112 112
73 65 36 27 11 15 17 44 48 106 127 150 154 149 154 157 159 199 160 155 162 163 168 168 166 164 160 154 148 143 139 135 131 127 123 123 123 124
93 87 65 38 27 350 8 44 26 118 146 160 155 153 149 161 171 198 170 184 177 173 171 170 173 175 175 172 170 166 164 160 155 149 144 144 143 142
98 102 100 83 66 40 30 11 15 48 174 180 170 150 155 160 196 210 203 190 184 171 162 173 174 181 186 189 188 185 181 179 177 174 173 174 176 178
147 115 139 125 107 89 65 53 52 86 37 263 178 174 171 173 194 219 214 187 214 189 186 200 181 192 192 190 192 191 189 189 190 191 192 195 199 204
174 225 273 147 155 158 155 130 80 86 134 211 247 238 184 175 200 228 222 217 230 207 195 224 207 202 191 195 190 191 192 194 197 199 202 205 209 214
187 213 252 138 213 179 212 204 205 217 236 226 228 238 192 186 220 228 231 224 220 219 203 235 225 219 196 185 192 191 194 197 201 205 208 212 217 224
202 205 210 182 183 203 230 237 232 229 231 167 175 184 183 192 206 249 241 229 239 227 213 222 234 222 199 188 196 196 197 201 205 210 215 220 224 228
208 188 192 191 184 202 229 231 241 249 245 204 196 216 213 213 212 214 238 247 255 244 218 216 231 225 233 203 183 192 201 207 210 214 218 223 223 223
232 209 195 181 188 213 238 236 238 245 247 236 223 214 215 215 211 214 221 228 245 253 223 213 237 236 231 229 201 194 193 196 204 217 221 224 222 215
250 244 199 188 200 216 232 239 235 240 250 244 235 228 219 215 212 214 217 224 231 240 232 222 238 233 240 244 239 205 206 201 194 200 207 217 223 224
272 252 193 201 211 224 228 231 226 237 247 248 246 237 223 216 212 210 217 219 230 240 239 226 229 234 234 244 242 224 220 212 197 202 202 201 204 207
262 249 204 206 220 231 229 228 229 238 240 250 254 245 227 216 214 213 219 217 230 241 235 225 223 225 236 237 235 235 221 210 202 204 209 208 204 203
214 220 223 220 223 228 229 227 225 229 241 247 251 254 248 239 229 216 217 231 235 237 236 232 223 224 230 230 237 236 227 228 218 210 218 222 216 208
199 224 230 231 234 236 234 230 225 226 236 241 241 241 241 240 238 231 221 232 245 246 238 225 217 225 242 246 228 235 238 237 233 222 229 231 229 206
210 233 234 233 239 243 239 237 236 231 231 237 240 241 240 240 237 237 234 237 242 241 240 228 217 217 234 247 244 218 220 232 230 228 226 229 231 215
225 235 239 238 241 246 246 245 246 240 236 242 247 251 248 247 248 241 234 238 243 244 247 238 222 220 227 237 243 241 218 214 216 226 235 235 229 185
233 236 241 242 241 239 240 238 242 247 243 240 244 249 254 256 256 253 245 237 240 247 252 250 237 223 221 215 241 244 221 213 214 212 214 216 223 209
239 239 245 249 247 248 242 241 246 243 240 243 248 249 254 258 262 260 255 248 240 245 252 247 219 215 218 224 245 251 238 209 229 232 224 220 211 213
236 240 242 248 245 240 244 250 256 255 245 250 256 256 257 261 265 265 262 260 260 257 247 234 228 227 238 235 242 251 242 217 214 215 237 230 214 202
Height
1535 1535 1535 1535 1535 1535 1535 1535 1536 1536 1537 1538 1538 1537 1537 1536 1536 1536 1535 1535 1535 1535 1535 1535 1534 1534 1534 1534 1534 1534 1534 1534 1534 1534 1535 1535 1536 1537
1534 1534 1534 1534 1534 1534 1534 1534 1535 1535 1535 1535 1536 1536 1536 1535 1535 1535 1535 1535 1535 1535 1535 1534 1534 1534 1533 1533 1533 1533 1533 1533 1534 1534 1534 1535 1535 1536
1534 1534 1534 1534 1534 1533 1533 1533 1534 1534 1534 1534 1535 1535 1535 1535 1535 1535 1534 1534 1534 1534 1534 1534 1534 1533 1533 1533 1533 1533 1533 1533 1533 1533 1534 1534 1535 1535
1533 1533 1533 1533 1533 1533 1532 1532 1532 1533 1533 1533 1533 1533 1534 1534 1534 1534 1534 1534 1534 1534 1533 1533 1533 1533 1533 1532 1532 1532 1532 1532 1532 1533 1533 1534 1534 1534
1533 1532 1532 1532 1531 1531 1531 1531 1531 1532 1532 1532 1532 1532 1532 1533 1533 1533 1533 1533 1533 1533 1532 1532 1532 1532 1532 1532 1532 1532 1532 1532 1532 1532 1532 1533 1533 1534
1532 1531 1531 1531 1530 1530 1530 1530 1530 1530 1531 1531 1531 1531 1531 1531 1532 1532 1532 1532 1532 1532 1531 1531 1531 1531 1531 1531 1531 1531 1531 1531 1531 1531 1532 1532 1532 1533
1531 1530 1530 1530 1529 1529 1529 1529 1529 1529 1529 1529 1529 1530 1529 1529 1530 1530 1530 1531 1531 1531 1530 1530 1530 1530 1530 1530 1530 1530 1530 1530 1530 1531 1531 1531 1531 1531
1529 1529 1529 1528 1528 1527 1527 1527 1527 1527 1527 1528 1528 1528 1527 1528 1528 1528 1529 1529 1529 1530 1529 1529 1528 1528 1528 1528 1528 1529 1529 1529 1529 1529 1529 1529 1529 1530
1528 1528 1528 1527 1526 1526 1526 1526 1526 1526 1526 1526 1526 1526 1526 1526 1526 1526 1527 1527 1527 1527 1527 1527 1527 1526 1526 1526 1526 1527 1527 1527 1527 1527 1527 1527 1527 1528
1526 1526 1526 1525 1525 1524 1524 1524 1524 1524 1524 1524 1524 1524 1524 1524 1524 1524 1524 1524 1524 1524 1525 1524 1524 1524 1524 1523 1524 1524 1525 1525 1525 1525 1525 1525 1525 1525
1524 1524 1523 1523 1523 1522 1522 1521 1521 1521 1522 1522 1522 1521 1521 1521 1521 1521 1521 1521 1521 1521 1521 1521 1521 1521 1521 1520 1521 1521 1522 1522 1522 1522 1522 1522 1522 1523
1522 1521 1521 1521 1521 1520 1520 1519 1519 1519 1519 1519 1519 1518 1518 1518 1518 1518 1518 1518 1518 1518 1518 1518 1518 1518 1518 1517 1518 1518 1518 1518 1519 1519 1519 1519 1519 1519
1519 1519 1518 1518 1518 1518 1517 1517 1517 1517 1516 1516 1516 1515 1515 1515 1514 1514 1514 1515 1514 1514 1514 1515 1515 1515 1515 1514 1514 1514 1515 1515 1515 1515 1515 1516 1516 1516
1517 1516 1516 1516 1515 1515 1515 1514 1514 1514 1514 1513 1513 1512 1512 1511 1511 1511 1511 1511 1511 1511 1511 1511 1511 1511 1511 1511 1510 1510 1511 1511 1511 1511 1511 1512 1512 1512
1513 1513 1513 1513 1513 1512 1512 1512 1511 1511 1510 1510 1510 1509 1509 1509 1508 1508 1507 1507 1507 1507 1507 1507 1507 1507 1507 1507 1506 1506 1507 1507 1507 1507 1507 1507 1507 1508
1510 1510 1510 1509 1509 1509 1508 1508 1508 1507 1507 1507 1507 1506 1506 1505 1505 1504 1504 1503 1502 1502 1502 1502 1502 1502 1502 1502 1502 1502 1502 1502 1502 1502 1503 1503 1503 1503
1506 1506 1506 1505 1505 1504 1504 1504 1504 1504 1503 1503 1502 1502 1502 1501 1501 1501 1500 1499 1498 1498 1497 1497 1497 1497 1497 1497 1497 1497 1497 1497 1498 1498 1498 1498 1498 1498
1502 1501 1501 1501 1500 1500 1500 1500 1499 1499 1498 1499 1498 1498 1497 1497 1497 1496 1496 1495 1494 1494 1493 1493 1493 1492 1492 1492 1492 1491 1492 1492 1493 1493 1493 1493 1493 1493
1497 1497 1496 1496 1496 1496 1496 1495 1495 1494 1494 1494 1493 1493 1493 1493 1492 1492 1492 1491 1490 1489 1489 1488 1488 1487 1487 1486 1486 1487 1486 1487 1488 1488 1488 1488 1488 1488
1492 1492 1492 1492 1492 1491 1491 1491 1490 1490 1489 1489 1489 1488 1488 1488 1487 1486 1486 1486 1485 1484 1483 1483 1483 1482 1482 1481 1481 1481 1482 1482 1482 1482 1483 1483 1483 1484
1487 1487 1487 1487 1487 1486 1486 1485 1485 1485 1484 1484 1484 1483 1483 1483 1482 1482 1481 1480 1480 1479 1478 1478 1478 1478 1478 1478 1477 1476 1477 1478 1478 1478 1478 1478 1478 1478
1482 1482 1482 1482 1482 1481 1481 1480 1480 1479 1479 1479 1479 1478 1478 1478 1477 1477 1476 1476 1475 1474 1473 1473 1473 1473 1473 1472 1472 1472 1472 1473 1473 1473 1474 1474 1474 1473
1477 1477 1477 1477 1477 1476 1476 1476 1475 1475 1474 1474 1473 1473 1473 1473 1472 1472 1472 1471 1470 1469 1468 1468 1468 1468 1468 1468 1468 1468 1468 1468 1468 1468 1469 1470 1470 1470